Hourly Weather Roundup
Issued by NWS Central Illinois

Home | Current Version | Previous Version | Text Only | Print | Product List | Glossary On
Versions: 1 2 3 4 5 6 7 8 9 10 11 12 13 14 15 16 17 18 19 20 21 22 23 24 25 26 27 28 29 30 31 32 33 34 35 36 37 38 39 40 41 42 43 44 45 46 47 48 49 50
000
NZUS43 KILX 301810
HWRILX

AREA WEATHER ROUNDUP
NATIONAL WEATHER SERVICE, LINCOLN IL
100 PM CDT SAT APR 30 2016


CITY           SKY/WX    TMP DP  RH WIND       PRES   REMARKS
BLOOMINGTON    LGT RAIN  54  54 100 E15       29.84F VSB 3/4
6HR MIN TEMP:  48; 6HR MAX TEMP:  54; 6HR PCP:  0.63;

CHAMPAIGN      LGT RAIN  56  55  97 E18       29.83F FOG
6HR MIN TEMP:  51; 6HR MAX TEMP:  56; 6HR PCP:  0.47;

DANVILLE       LGT RAIN  53  52  97 E12       29.85S
6HR MIN TEMP:  49; 6HR MAX TEMP:  53; 6HR PCP:  0.49;

DECATUR        CLOUDY    58  56  93 SE15      29.81F
6HR MIN TEMP:  53; 6HR MAX TEMP:  58; 6HR PCP:  0.46;

EFFINGHAM      CLOUDY    60  60 100 SE14      29.84F
FLORA          CLOUDY    63  61  93 SE13      29.84F
6HR MIN TEMP:  58; 6HR MAX TEMP:  63; 6HR PCP:  0.25;

GALESBURG      LGT RAIN  51  50  96 E15       29.78F
JACKSONVILLE   CLOUDY    59  56  92 SE13      29.76S
6HR MIN TEMP:  53; 6HR MAX TEMP:  59; 6HR PCP:  0.15;

LACON          RAIN      50  48  94 E12       29.83F
6HR MIN TEMP:  47; 6HR MAX TEMP:  50; 6HR PCP:  0.25;

LAWRENCEVILLE  CLOUDY    61  60  97 SE12      29.87F
6HR MIN TEMP:  57; 6HR MAX TEMP:  61; 6HR PCP:  0.38;

LITCHFIELD     CLOUDY    61  58  91 SE12      29.77F
$$


CITY           SKY/WX    TMP DP  RH WIND       PRES   REMARKS
LINCOLN        CLOUDY    57  56  97 E13G22    29.80F FOG
6HR MIN TEMP:  51; 6HR MAX TEMP:  57; 6HR PCP:  0.49;

MACOMB         CLOUDY    55  55  99 E15       29.78F FOG
MATTOON        LGT RAIN  58  55  90 SE13G21   29.82F
6HR MIN TEMP:  54; 6HR MAX TEMP:  58; 6HR PCP:  0.33;

MT CARMEL AP   NOT AVBL
OLNEY-NOBLE AP CLOUDY    61  59  94 SE10G17   29.85F
PARIS          LGT RAIN  56  56  99 E10G18    29.86F
6HR MIN TEMP:  52; 6HR MAX TEMP:  56; 6HR PCP:  0.41;

PEORIA         RAIN      54  52  93 E14       29.81F FOG
6HR MIN TEMP:  48; 6HR MAX TEMP:  54; 6HR PCP:  0.56;

PONTIAC        LGT RAIN  52  51  97 E20G25    29.88S
RANTOUL        LGT RAIN  55  54  95 E12G17    29.86F
6HR MIN TEMP:  51; 6HR MAX TEMP:  55; 6HR PCP:  0.35;

ROBINSON       CLOUDY    59  58  96 SE12G17   29.87F
6HR MIN TEMP:  55; 6HR MAX TEMP:  59; 6HR PCP:  0.37;

SPRINGFIELD    CLOUDY    59  58  96 SE13      29.77F
6HR MIN TEMP:  54; 6HR MAX TEMP:  59; 6HR PCP:  0.37;

TAYLORVILLE    CLOUDY    59  57  94 SE9       29.78F
$$

...REGIONAL REPORTS...


CITY           SKY/WX    TMP DP  RH WIND       PRES   REMARKS
CHICAGO O`HARE LGT RAIN  45  41  86 E17       29.97F FOG
KANKAKEE       RAIN      48  47  95 E18       29.91F
MOLINE         LGT RAIN  50  47  89 E24G31    29.81F FOG
MOUNT STERLING CLOUDY    57  56  97 SE13      29.74S FOG
MOUNT VERNON   CLOUDY    64  59  82 SE7       29.82F
PITTSFIELD     CLOUDY    60  60  97 SE9       29.75S FOG
QUINCY         CLOUDY    60  58  92 SE13      29.72R
ROCKFORD       LGT RAIN  48  43  82 E20G25    29.97F HAZE
$$


CITY           SKY/WX    TMP DP  RH WIND       PRES   REMARKS
BURLINGTON     CLOUDY    54  50  87 E14       29.75S
CEDAR RAPIDS   HVY RAIN  48  46  93 E22G31    29.80F FOG
DES MOINES     LGT RAIN  49  45  86 E13       29.77S
KIRKSVILLE     CLOUDY    57  56  96 E7        29.70S
OTTUMWA        LGT RAIN  50  49  96 E14       29.75S FOG
ST LOUIS       CLOUDY    67  61  81 S8        29.75S
$$


CITY           SKY/WX    TMP DP  RH WIND       PRES   REMARKS
TERRE HAUTE    LGT RAIN  58  55  90 SE16G22   29.87F
EVANSVILLE     CLOUDY    64  61  90 SE8       29.88F
INDIANAPOLIS   RAIN      54  51  90 E20       29.84F FOG
LAFAYETTE      RAIN      50  49  96 E18       29.89F FOG
MADISON        LGT RAIN  48  41  76 E15       30.01F
MILWAUKEE      CLOUDY    45  39  79 E17       30.05F
$$






USA.gov is the U.S. government's official web portal to all federal, state and local government web resources and services.